Stations météo

réclame
Mon MeteoGroup
Grenoble/St.Geoirs, France (7486): Température de l'air & dewpoint: 11.02.2019 13:00:00 - 17.02.2019 13:00:00 (CET)Grenoble/St.Geoirs, France (7486): Température de l'air 5cm: 11.02.2019 13:00:00 - 17.02.2019 13:00:00 (CET)Grenoble/St.Geoirs, France (7486): Température de l'air -20cm & Température de l'air -100cm: 11.02.2019 13:00:00 - 17.02.2019 13:00:00 (CET)Grenoble/St.Geoirs, France (7486): Vitesse du vent & gusts: 11.02.2019 13:00:00 - 17.02.2019 13:00:00 (CET)Grenoble/St.Geoirs, France (7486): Direction du vent: 11.02.2019 13:00:00 - 17.02.2019 13:00:00 (CET)Grenoble/St.Geoirs, France (7486): reduced air pressure: 11.02.2019 13:00:00 - 17.02.2019 13:00:00 (CET)Grenoble/St.Geoirs, France (7486): visibility: 11.02.2019 13:00:00 - 17.02.2019 13:00:00 (CET)Grenoble/St.Geoirs, France (7486): Ensoleillement: 11.02.2019 13:00:00 - 17.02.2019 13:00:00 (CET)Grenoble/St.Geoirs, France (7486): Quantités de précipitations: 11.02.2019 13:00:00 - 17.02.2019 13:00:00 (CET)
Date & Time tt [°C] td [°C] tt 5cm [°C] tt -20cm [°C] tt -100cm [°C] ff [km/h] ff [knt] fx [km/h] fx [knt] dd ppp [hPa] vv [km] sd [min] rr [mm]
17.02.2019 13:00:00 13,8 2,4 17,6 4,4 6,0 18 10 26 14 S 1026,1 20 60 0,0
17.02.2019 12:00:00 12,6 2,2 14,5 4,4 5,9 11 6 21 11 S 1027,3 20 60 0,0
17.02.2019 11:00:00 11,5 2,2 11,1 4,5 6,0 8 4 18 10 SSE 1027,7 20 60 0,0
17.02.2019 10:00:00 8,3 1,7 6,3 4,5 5,9 14 8 23 12 E 1028,2 19 60 0,0
17.02.2019 09:00:00 4,3 -0,9 -0,3 4,6 6,0 16 8 22 12 E 1029,0 28 60 0,0
17.02.2019 08:00:00 -0,4 -3,1 -2,4 4,7 6,0 16 9 22 12 E 1029,8 35 0 0,0
17.02.2019 07:00:00 -0,4 -3,6 -2,8 4,7 5,9 13 7 17 9 E 1029,6 33 0 0,0
17.02.2019 06:00:00 0,8 -3,0 -0,7 4,8 5,9 17 9 28 15 E 1029,3 35 0 0,0
17.02.2019 05:00:00 3,3 -1,7 -1,3 4,9 6,0 18 10 26 14 ENE 1029,0 40 0 0,0
17.02.2019 04:00:00 0,5 -2,7 -1,6 4,9 6,0 15 8 19 11 E 1029,8 30 0 0,0
17.02.2019 03:00:00 0,7 -2,5 -1,5 5,0 5,9 10 5 18 10 E 1030,1 27 0 0,0
17.02.2019 02:00:00 0,4 -3,0 -1,4 5,0 5,9 13 7 17 9 E 1030,3 23 0 0,0
17.02.2019 01:00:00 0,8 -2,6 -1,9 5,0 5,9 11 6 14 8 E 1030,3 19 0 0,0
17.02.2019 00:00:00 1,8 -2,7 -0,7 5,1 6,0 8 4 18 10 ENE 1030,1 21 0 0,0
16.02.2019 23:00:00 3,5 -2,1 -0,2 5,1 5,9 5 3 19 10 ESE 1030,0 29 0 0,0
16.02.2019 22:00:00 7,1 -2,9 0,3 5,0 5,9 5 3 21 11 SE 1029,6 29 0 0,0
16.02.2019 21:00:00 8,7 -3,2 1,0 5,0 5,9 5 3 14 7 SE 1029,1 44 0 0,0
16.02.2019 20:00:00 9,2 -1,8 2,9 4,9 5,9 3 2 17 9 NE 1028,8 48 0 0,0
16.02.2019 19:00:00 12,3 -3,9 5,7 4,8 5,9 8 4 19 10 SW 1028,2 34 0 0,0
16.02.2019 18:00:00 14,3 -3,1 11,8 4,7 5,9 9 5 21 11 SSW 1027,6 20 43 0,0
16.02.2019 17:00:00 16,1 -1,5 17,8 4,5 5,9 13 7 27 15 S 1027,3 48 60 0,0
16.02.2019 16:00:00 17,0 -0,3 20,2 4,4 5,9 16 9 28 15 SSW 1027,4 29 60 0,0
16.02.2019 15:00:00 16,9 0,5 20,6 4,3 5,9 17 9 27 14 S 1028,0 31 60 0,0
16.02.2019 14:00:00 17,0 -0,3 21,0 4,1 5,9 13 7 21 12 SSW 1028,4 32 60 0,0
16.02.2019 13:00:00 16,0 0,5 18,0 4,1 5,9 4 2 16 8 SE 1029,3 19 60 0,0
16.02.2019 12:00:00 13,3 1,0 14,3 4,1 5,9 13 7 20 11 E 1030,3 60 60 0,0
16.02.2019 11:00:00 11,1 0,2 10,5 4,2 5,9 16 9 27 14 E 1030,8 20 60 0,0
16.02.2019 10:00:00 7,9 -0,6 6,1 4,3 5,9 20 11 29 15 E 1031,3 49 60 0,0
16.02.2019 09:00:00 4,1 -1,1 0,2 4,3 5,9 19 11 25 14 E 1032,0 46 58 0,0
16.02.2019 08:00:00 0,3 -2,9 -1,3 4,4 5,9 19 11 28 15 E 1032,6 38 0 0,0
16.02.2019 07:00:00 0,2 -3,0 -1,1 4,5 5,9 19 10 22 12 E 1032,2 42 0 0,0
16.02.2019 06:00:00 0,5 -3,2 -1,2 4,5 5,9 20 11 23 13 E 1031,9 39 0 0,0
16.02.2019 05:00:00 0,4 -2,8 -1,2 4,5 5,9 19 10 22 12 E 1031,8 42 0 0,0
16.02.2019 04:00:00 0,9 -2,7 -1,2 4,6 5,9 19 11 22 12 E 1031,5 42 0 0,0
16.02.2019 03:00:00 1,3 -2,6 -0,4 4,6 5,9 16 9 22 12 E 1031,7 36 0 0,0
16.02.2019 02:00:00 2,3 -2,0 -0,7 4,7 5,9 16 9 28 15 E 1031,4 42 0 0,0
16.02.2019 01:00:00 5,0 -1,0 0,8 4,7 5,9 19 11 28 15 ENE 1030,9 40 0 0,0
16.02.2019 00:00:00 3,8 -1,4 1,4 4,7 5,9 19 11 27 15 ENE 1030,8 35 0 0,0
15.02.2019 23:00:00 6,7 -0,8 3,6 4,7 5,9 19 10 26 14 ENE 1030,3 30 0 0,0
15.02.2019 22:00:00 6,5 -0,7 1,1 4,7 5,9 19 10 27 15 ENE 1030,3 29 0 0,0
15.02.2019 21:00:00 2,8 -1,2 0,5 4,6 5,9 16 9 23 12 E 1030,9 33 0 0,0
15.02.2019 20:00:00 2,9 -1,1 0,8 4,5 5,9 14 8 18 10 E 1030,7 27 0 0,0
15.02.2019 19:00:00 5,6 -0,7 1,8 4,4 5,9 11 6 13 7 E 1030,4 42 0 0,0
15.02.2019 18:00:00 11,5 1,7 6,6 4,3 5,9 9 5 12 7 ENE 1029,0 44 42 0,0
15.02.2019 17:00:00 14,7 1,9 17,3 4,1 5,9 10 6 16 9 E 1028,7 50 60 0,0
15.02.2019 16:00:00 16,0 0,9 20,4 4,0 5,9 11 6 18 10 E 1028,7 20 60 0,0
15.02.2019 15:00:00 15,6 -0,6 20,0 3,9 5,9 14 8 21 11 E 1029,2 54 60 0,0
15.02.2019 14:00:00 14,7 1,2 18,1 3,8 5,9 13 7 24 13 ENE 1030,0 54 60 0,0
15.02.2019 13:00:00 13,2 0,2 15,7 3,8 5,9 17 9 24 13 E 1031,0 42 60 0,0
15.02.2019 12:00:00 11,1 -0,1 12,4 3,9 5,9 18 10 25 14 E 1031,9 42 60 0,0
15.02.2019 11:00:00 9,7 0,0 9,5 3,9 5,9 20 11 32 18 E 1032,1 46 60 0,0
15.02.2019 10:00:00 7,3 0,0 5,6 3,9 5,9 20 11 29 16 E 1032,7 46 60 0,0
15.02.2019 09:00:00 3,6 -1,2 -0,8 4,0 5,9 18 10 23 12 E 1033,7 28 57 0,0
15.02.2019 08:00:00 -0,6 -3,1 -2,0 4,0 5,9 18 10 24 13 E 1033,9 34 0 0,0
15.02.2019 07:00:00 0,0 -2,7 -2,1 4,1 5,9 19 11 23 12 E 1033,7 27 0 0,0
15.02.2019 06:00:00 -0,8 -3,3 -2,4 4,1 5,9 17 9 21 11 E 1033,7 30 0 0,0
15.02.2019 05:00:00 -0,3 -3,5 -1,6 4,2 5,9 18 10 24 13 E 1033,6 32 0 0,0
15.02.2019 04:00:00 2,6 -2,1 -1,0 4,2 5,9 14 8 23 12 ENE 1033,4 26 0 0,0
15.02.2019 03:00:00 0,9 -2,9 -1,4 4,3 5,9 18 10 23 12 E 1033,9 27 0 0,0
15.02.2019 02:00:00 1,0 -3,1 -1,6 4,3 5,9 16 8 21 11 ENE 1034,2 32 0 0,0
15.02.2019 01:00:00 2,1 -2,1 -0,8 4,3 5,9 19 10 22 12 E 1034,0 28 0 0,0
15.02.2019 00:00:00 3,9 -2,9 0,0 4,3 5,9 16 9 24 13 ENE 1033,6 27 0 0,0
14.02.2019 23:00:00 5,5 -1,7 -0,5 4,3 5,9 19 11 29 16 ENE 1033,2 30 0 0,0
14.02.2019 22:00:00 3,3 -2,5 0,9 4,3 5,9 15 8 27 15 E 1033,6 32 0 0,0
14.02.2019 21:00:00 4,4 -0,8 -0,7 4,3 5,9 18 10 25 13 ENE 1033,4 26 0 0,0
14.02.2019 20:00:00 1,9 -1,4 -0,7 4,2 5,9 14 7 19 10 ENE 1034,1 22 0 0,0
14.02.2019 19:00:00 4,2 -0,6 -0,1 4,1 5,9 12 7 14 8 E 1033,6 34 0 0,0
14.02.2019 18:00:00 9,4 1,3 5,9 3,9 5,9 10 5 12 7 ENE 1032,8 44 40 0,0
14.02.2019 17:00:00 12,9 0,9 15,9 3,8 5,9 8 4 14 8 E 1032,4 38 60 0,0
14.02.2019 16:00:00 13,5 0,5 17,9 3,7 5,9 10 6 19 10 E 1032,7 31 60 0,0
14.02.2019 15:00:00 13,0 0,4 18,0 3,5 5,9 10 5 18 10 ENE 1033,5 42 60 0,0
14.02.2019 14:00:00 12,0 -0,2 16,6 3,5 5,9 11 6 20 11 ENE 1034,3 60 60 0,0
14.02.2019 13:00:00 11,3 0,1 13,4 3,5 5,9 13 7 22 12 E 1035,1 53 60 0,0
14.02.2019 12:00:00 9,3 -0,9 10,0 3,6 5,9 18 10 25 14 E 1036,2 20 60 0,0
14.02.2019 11:00:00 7,0 -0,9 6,9 3,6 5,9 20 11 29 16 E 1036,8 53 60 0,0
14.02.2019 10:00:00 4,8 -1,4 3,8 3,6 5,9 21 11 28 15 E 1037,3 53 60 0,0
14.02.2019 09:00:00 2,4 -2,0 -0,3 3,7 5,9 20 11 27 15 E 1037,9 30 55 0,0
14.02.2019 08:00:00 0,3 -2,7 -1,7 3,8 5,9 20 11 26 14 E 1038,2 33 0 0,0
14.02.2019 07:00:00 0,3 -3,1 -1,2 3,8 5,9 18 10 31 17 E 1037,9 36 0 0,0
14.02.2019 06:00:00 1,3 -2,6 -2,6 3,9 5,9 21 11 28 15 E 1037,8 35 0 0,0
14.02.2019 05:00:00 -0,9 -3,9 -2,5 3,9 5,9 16 9 23 13 E 1037,9 33 0 0,0
14.02.2019 04:00:00 -0,2 -3,1 -2,3 3,9 5,9 16 9 25 14 E 1037,7 31 0 0,0
14.02.2019 03:00:00 -0,6 -3,1 -2,0 4,0 5,9 17 9 21 11 E 1037,7 27 0 0,0
14.02.2019 02:00:00 -0,5 -3,2 -3,4 4,0 5,9 17 9 20 11 E 1037,8 25 0 0,0
14.02.2019 01:00:00 -0,9 -3,3 -3,7 4,1 5,9 16 9 18 10 E 1037,9 26 0 0,0
14.02.2019 00:00:00 0,3 -2,6 -2,8 4,1 5,9 10 5 18 10 ESE 1037,4 27 0 0,0
13.02.2019 23:00:00 -1,2 -3,7 -2,9 4,1 5,9 16 9 18 10 E 1037,6 24 0 0,0
13.02.2019 22:00:00 -0,5 -3,5 -2,2 4,1 5,9 15 8 18 10 E 1037,3 29 0 0,0
13.02.2019 21:00:00 -0,1 -3,0 -3,1 4,1 5,9 18 10 19 11 E 1036,7 30 0 0,0
13.02.2019 20:00:00 1,0 -2,1 -1,7 4,0 5,9 16 9 20 11 E 1036,3 28 0 0,0
13.02.2019 19:00:00 1,4 -2,7 -0,9 4,0 5,9 14 8 18 10 ENE 1036,0 34 0 0,0
13.02.2019 18:00:00 6,6 -0,6 4,3 3,8 5,9 11 6 20 11 ENE 1034,6 37 39 0,0
13.02.2019 17:00:00 9,1 -0,3 11,2 3,8 5,9 16 8 23 12 E 1034,3 36 60 0,0
13.02.2019 16:00:00 9,9 -0,9 13,6 3,7 5,9 18 10 24 13 E 1034,2 45 60 0,0
13.02.2019 15:00:00 9,1 -1,9 13,3 3,6 5,9 16 8 24 13 E 1034,5 27 60 0,0
13.02.2019 14:00:00 8,2 -1,6 12,1 3,7 5,9 18 10 26 14 E 1035,1 25 60 0,0
13.02.2019 13:00:00 6,8 -1,1 9,1 3,7 5,9 17 9 32 17 E 1035,6 20 60 0,0
13.02.2019 12:00:00 5,3 -1,4 6,8 3,7 5,9 22 12 31 17 E 1036,3 17 60 0,0
13.02.2019 11:00:00 4,1 -1,1 4,8 3,8 5,9 21 12 33 18 E 1036,4 14 60 0,0
13.02.2019 10:00:00 -0,8 -1,5 -1,0 3,9 5,9 3 2 9 5 NNW 1037,4 0,4 60 0,0
13.02.2019 09:00:00 -2,5 -3,3 -4,5 4,0 5,9 3 1 12 7 S 1037,5 0,4 46 0,0
13.02.2019 08:00:00 -3,1 -3,9 -8,3 4,0 5,9 6 4 12 6 NW 1037,4 0,1 0 0,0
13.02.2019 07:00:00 -3,9 -4,9 -8,0 4,1 5,9 3 1 8 4 SE 1037,0 3,5 0 0,0
13.02.2019 06:00:00 -3,3 -4,0 -6,6 4,1 5,9 5 3 10 5 E 1036,8 0,1 0 0,0
13.02.2019 05:00:00 -4,1 -5,2 -8,2 4,2 5,9 7 4 10 6 E 1036,8 0,8 0 0,0
13.02.2019 04:00:00 -2,0 -3,1 -7,5 4,3 5,9 2 1 16 9 WSW 1036,5 1,8 0 0,0
13.02.2019 03:00:00 -2,1 -3,1 -7,2 4,3 5,9 4 2 12 6 S 1036,3 2,4 0 0,0
13.02.2019 02:00:00 -0,2 -1,2 -5,0 4,4 5,9 12 6 17 9 N 1035,9 5 0 0,0
13.02.2019 01:00:00 -0,3 -1,4 -3,1 4,5 5,9 8 4 14 8 NNW 1035,9 6 0 0,0
13.02.2019 00:00:00 0,6 -0,7 -2,4 4,5 5,9 10 5 14 8 N 1035,3 8 0 0,0
12.02.2019 23:00:00 0,9 -0,4 -2,3 4,6 5,9 8 5 17 9 NE 1035,8 9 0 0,0
12.02.2019 22:00:00 1,0 -0,6 -3,9 4,5 5,9 9 5 13 7 NE 1035,7 11 0 0,0
12.02.2019 21:00:00 1,5 -1,1 -3,6 4,6 5,9 5 3 9 5 NE 1035,7 15 0 0,0
12.02.2019 20:00:00 2,3 -1,0 -2,1 4,5 5,9 5 3 17 9 NW 1035,9 18 0 0,0
12.02.2019 19:00:00 2,9 0,1 -2,4 4,5 5,9 6 3 14 8 NNW 1035,6 20 0 0,0
12.02.2019 18:00:00 3,4 0,1 0,1 4,4 5,9 4 2 24 13 N 1035,1 23 31 0,0
12.02.2019 17:00:00 4,4 0,7 4,7 4,3 5,8 16 9 26 14 N 1035,1 25 43 0,0
12.02.2019 16:00:00 4,3 0,1 6,4 4,2 5,8 16 9 34 19 N 1035,3 11 55 0,0
12.02.2019 15:00:00 5,1 0,5 9,9 4,1 5,8 21 12 28 15 N 1035,1 5 60 0,0
12.02.2019 14:00:00 4,2 -0,2 9,5 4,1 5,8 14 8 26 14 NNE 1035,5 29 60 0,0
12.02.2019 13:00:00 4,0 -0,2 6,2 4,1 5,8 14 8 25 14 NNE 1036,6 30 45 0,0
12.02.2019 12:00:00 4,2 0,0 4,6 4,1 5,8 9 5 21 12 N 1037,5 37 35 0,0
12.02.2019 11:00:00 2,3 -1,0 2,9 4,2 5,8 10 5 21 12 WNW 1037,4 25 3 0,0
12.02.2019 10:00:00 2,2 -0,1 1,3 4,2 5,8 12 7 22 12 NNW 1037,0 25 14 0,0
12.02.2019 09:00:00 1,2 -0,4 -0,3 4,3 5,8 16 8 21 12 N 1036,5 19 1 0,0
12.02.2019 08:00:00 0,8 -0,5 -0,6 4,3 5,8 16 9 26 14 N 1035,4 17 0 0,0
12.02.2019 07:00:00 0,9 -0,7 -0,5 4,3 5,8 13 7 21 11 N 1034,8 20 0 0,0
12.02.2019 06:00:00 1,3 -0,5 0,1 4,3 5,8 13 7 19 10 N 1034,3 23 0 0,0
12.02.2019 05:00:00 2,3 0,2 1,6 4,4 5,8 11 6 21 12 NNE 1034,1 35 0 0,0
12.02.2019 04:00:00 2,6 0,3 2,0 4,4 5,8 9 5 26 14 NE 1034,0 44 0 0,0
12.02.2019 03:00:00 2,8 0,8 0,9 4,4 5,8 10 6 20 11 NNE 1033,8 39 0 0,0
12.02.2019 02:00:00 2,4 0,6 0,6 4,4 5,8 5 3 21 11 NE 1033,5 35 0 0,0
12.02.2019 01:00:00 1,8 0,3 -0,1 4,5 5,8 6 4 12 7 E 1033,2 27 0 0,0
12.02.2019 00:00:00 2,0 0,2 -0,2 4,5 5,8 6 3 21 11 NNW 1032,9 19 0 0,0
11.02.2019 23:00:00 2,3 0,5 0,7 4,5 5,8 8 4 12 7 W 1032,5 29 0 0,0
11.02.2019 22:00:00 2,8 1,3 2,3 4,5 5,8 11 6 18 10 NE 1031,9 5 0 1,4
11.02.2019 21:00:00 3,0 1,8 2,3 4,4 5,8 6 3 12 6 N 1031,2 2,7 0 1,4
11.02.2019 20:00:00 2,8 1,5 0,1 4,4 5,8 2 1 12 6 NW 1030,5 22 0 0,0
11.02.2019 19:00:00 2,6 0,2 0,0 4,4 5,8 6 3 12 6 E 1029,9 43 0 0,2
11.02.2019 18:00:00 3,6 1,6 3,0 4,3 5,8 12 6 21 11 NNW 1028,9 15 0 0,2
11.02.2019 17:00:00 5,2 1,1 4,8 4,3 5,8 13 7 27 15 NNE 1027,7 52 0 0,0
11.02.2019 16:00:00 5,8 -0,1 6,2 4,2 5,8 16 9 29 16 N 1027,0 52 0 0,0
11.02.2019 15:00:00 5,9 0,6 7,0 4,1 5,7 19 11 32 17 NNW 1026,3 31 0 0,0
11.02.2019 14:00:00 5,2 0,8 4,1 4,1 5,8 4 2 14 8 SW 1026,5 58 12 0,0
11.02.2019 13:00:00 3,6 1,0 4,0 4,1 5,8 9 5 20 11 S 1026,8 57 0 0,0

tt = Température de l'air
td = dewpoint
tt 5cm = Température de l'air 5cm
tt -20cm = Température de l'air -20cm
tt -100cm = Température de l'air -100cm
ff = Vitesse du vent
fx = gusts
dd = Direction du vent
ppp = reduced air pressure
vv = visibility
sd = Ensoleillement
rr = Quantités de précipitations

stations d'obs. à proximité